Waterloo, IA

7:04 PM CDT on July 27, 2017 (GMT -0500)
Waterloo Municipal

Weather History for KALO - December, 2013

Change the Weather History Date:

Monday, December 9, 2013

  Actual Average Record
Temperature  
Mean Temperature 3 °F 24 °F  
Max Temperature 15 °F 33 °F 61 °F (1946)
Min Temperature -9 °F 15 °F -16 °F (1917)
Degree Days  
Heating Degree Days 62 41  
Month to date heating degree days 411 353  
Since 1 July heating degree days 2017 1836  
Cooling Degree Days 0 0  
Month to date cooling degree days 0 0  
Year to date cooling degree days 837 799  
Moisture  
Dew Point -3 °F    
Average Humidity 79    
Maximum Humidity 95    
Minimum Humidity 62    
Precipitation  
Precipitation T in 0.05 in 0.43 in (2009)
Month to date precipitation 0.19 0.43  
Year to date precipitation 40.13 33.83  
Snow  
Snow 0.10 in 0.30 in 5.20 in (2009)
Month to date snowfall 3.0 2.8  
Since 1 July snowfall 8.9 6.2  
Snow Depth 3.00 in    
Sea Level Pressure  
Sea Level Pressure 30.18 in    
Wind  
Wind Speed 10 mph (West)    
Max Wind Speed 21 mph    
Max Gust Speed 26 mph    
Visibility 9 miles    
Events Snow    
T = Trace of Precipitation, MM = Missing Value Source: NWS Daily Summary

Daily Weather History Graph

Daily Weather History Graph

Search for Another Location

Airport or City:

Trip Planner

Search our weather history database for the weather conditions in past years. The results will help you decide how hot, cold, wet, or windy it might be!

Date:

Astronomy

Dec. 09, 2013 Rise Set
Actual Time 7:27 AM CST 4:36 PM CST
Civil Twilight 6:55 AM CST 5:08 PM CST
Nautical Twilight 6:20 AM CST 5:43 PM CST
Astronomical Twilight 5:46 AM CST 6:17 PM CST
Moon 12:13 PM CST (12/9) No Moon Set
Length of Visible Light 10h 12m
Length of Day
9h 08m
Waxing Crescent, 51% of the Moon is Illuminated
Dec 9
Waxing Crescent
Dec 17
Full
Dec 25
Last Quarter
Jan 1
New
Jan 7
First Quarter

Hourly Weather History & Observations

Time (CST) Temp. Windchill Dew Point Humidity Pressure Visibility Wind Dir Wind Speed Gust Speed Precip Events Conditions
12:54 AM 15.1 °F 7.7 °F 12.0 °F 88% 30.04 in 2.5 mi WNW 4.6 mph - 0.00 in Snow Light Snow
1:09 AM 12.9 °F 5.2 °F 10.9 °F 92% 30.00 in 3.0 mi West 4.6 mph - 0.00 in Snow Light Snow
1:46 AM 15.1 °F 5.2 °F 12.0 °F 88% 30.01 in 5.0 mi WNW 6.9 mph - 0.00 in Snow Light Snow
1:54 AM 15.1 °F 3.3 °F 12.0 °F 88% 30.07 in 7.0 mi WNW 9.2 mph - 0.00 in   Overcast
2:36 AM 12.9 °F -0.2 °F 10.0 °F 88% 30.04 in 10.0 mi WNW 10.4 mph - N/A   Scattered Clouds
2:54 AM 12.0 °F -0.4 °F 9.0 °F 88% 30.09 in 10.0 mi WNW 9.2 mph - N/A   Clear
3:54 AM 9.0 °F -5.9 °F 6.1 °F 88% 30.10 in 10.0 mi WNW 11.5 mph - N/A   Clear
4:54 AM 3.9 °F -10.4 °F 1.0 °F 88% 30.11 in 10.0 mi West 9.2 mph - N/A   Clear
5:54 AM 1.9 °F -12.9 °F -0.9 °F 88% 30.13 in 10.0 mi West 9.2 mph - N/A   Clear
6:54 AM 1.9 °F -12.9 °F -2.0 °F 83% 30.17 in 10.0 mi West 9.2 mph - N/A   Clear
7:54 AM -0.0 °F -19.4 °F -4.0 °F 83% 30.19 in 10.0 mi West 15.0 mph - N/A   Clear
8:54 AM 1.0 °F -19.3 °F -5.1 °F 75% 30.21 in 10.0 mi West 17.3 mph 25.3 mph N/A   Clear
9:54 AM 1.0 °F -17.3 °F -7.1 °F 69% 30.23 in 10.0 mi West 13.8 mph - N/A   Clear
10:54 AM 1.9 °F -14.7 °F -7.1 °F 66% 30.25 in 10.0 mi WNW 11.5 mph - N/A   Clear
11:54 AM 3.9 °F -12.2 °F -7.1 °F 60% 30.25 in 10.0 mi West 11.5 mph - N/A   Clear
12:54 PM 3.0 °F -15.5 °F -7.1 °F 63% 30.26 in 10.0 mi West 15.0 mph 19.6 mph N/A   Clear
1:34 PM 3.0 °F -16.1 °F -7.1 °F 63% 30.20 in 4.0 mi West 16.1 mph - N/A   Haze
1:54 PM 3.0 °F -11.5 °F -6.0 °F 66% 30.27 in 10.0 mi West 9.2 mph - N/A   Clear
2:54 PM 3.9 °F -13.7 °F -6.0 °F 64% 30.27 in 10.0 mi WSW 13.8 mph - N/A   Clear
3:54 PM 1.9 °F -14.7 °F -6.0 °F 69% 30.28 in 10.0 mi West 11.5 mph - N/A   Clear
4:54 PM -0.0 °F -15.3 °F -8.0 °F 69% 30.28 in 10.0 mi West 9.2 mph - N/A   Clear
5:54 PM -5.1 °F -19.1 °F -9.9 °F 80% 30.28 in 10.0 mi South 6.9 mph - N/A   Clear
6:54 PM -7.1 °F -21.4 °F -11.0 °F 83% 30.27 in 10.0 mi WSW 6.9 mph - N/A   Clear
7:54 PM -5.1 °F -13.6 °F -9.9 °F 80% 30.25 in 10.0 mi South 3.5 mph - N/A   Clear
8:54 PM -6.0 °F -21.5 °F -9.9 °F 83% 30.23 in 10.0 mi South 8.1 mph - N/A   Clear
9:54 PM -8.0 °F - -11.9 °F 83% 30.21 in 10.0 mi Calm Calm - N/A   Clear
10:54 PM -2.9 °F -15.0 °F -8.0 °F 79% 30.18 in 10.0 mi South 5.8 mph - N/A   Clear
11:54 PM -2.9 °F -18.8 °F -8.0 °F 79% 30.13 in 10.0 mi South 9.2 mph - N/A   Clear